RH
86 85 88 83 88 87 98 100 100 100 100 100 100 100 98 87 76 88 100 92 97 100 100 100 98 99 99 100 96 90 94 87 84 86 77 68 70 69 72 74 78 81 78
87 89 88 83 88 99 95 100 97 100 97 100 99 100 100 98 81 85 97 100 90 98 100 99 99 93 93 91 97 91 91 90 91 90 87 79 80 76 75 79 79 82 82
87 89 87 85 86 91 97 100 100 99 96 90 99 99 100 100 87 76 87 99 99 88 97 100 99 91 90 92 97 95 89 87 95 93 96 90 84 81 82 84 82 85 84
90 89 89 88 88 88 90 95 100 100 100 96 97 100 100 100 96 85 84 90 100 99 86 98 100 93 79 87 94 96 95 98 97 94 99 95 93 88 87 83 79 76 76
91 91 92 92 90 90 90 90 97 99 100 93 96 94 97 100 98 97 91 97 99 96 95 84 92 98 88 84 88 84 99 100 100 100 100 98 98 97 93 83 83 82 79
93 92 93 93 92 91 93 91 94 98 100 100 95 91 95 100 96 94 100 97 99 100 92 85 90 86 99 93 88 82 93 97 100 100 100 97 96 99 92 95 86 88 98
92 91 93 94 93 93 93 93 93 96 100 100 86 87 100 100 92 93 100 98 98 98 97 90 88 98 99 95 99 93 80 100 100 98 77 74 100 95 82 90 90 88 87
91 92 94 96 95 93 96 94 94 97 99 100 91 89 97 99 93 96 98 99 100 99 98 87 81 82 100 94 90 98 97 90 95 99 97 92 99 75 76 80 84 92 99
93 96 95 96 95 96 97 95 95 100 100 100 90 87 95 90 96 96 98 96 99 100 99 98 83 76 85 99 94 100 100 99 99 100 89 100 92 90 85 86 100 100 100
95 95 95 96 95 94 95 96 99 100 100 98 91 92 95 95 96 97 98 98 99 100 100 98 71 69 82 94 98 100 99 96 94 99 100 100 100 94 97 94 94 95 99
96 96 97 97 96 94 99 100 97 100 100 95 95 95 96 97 96 97 97 98 98 100 100 100 98 79 90 94 95 100 96 100 100 99 99 99 100 100 98 100 99 98 96
96 97 96 96 95 96 100 96 96 98 98 96 95 95 96 96 96 98 97 98 98 99 100 100 99 99 92 94 100 94 98 89 98 100 100 99 100 100 100 98 96 97 100
97 96 97 97 97 96 96 96 96 97 100 100 95 95 95 95 96 97 96 97 98 98 100 100 99 84 87 95 90 99 100 100 100 100 99 99 96 99 92 96 98 98 96
97 98 96 96 96 96 95 100 99 99 100 100 95 96 96 96 96 97 95 96 97 97 98 100 100 88 98 94 100 100 100 100 100 99 99 98 100 100 98 92 99 100 100
95 96 97 96 96 95 95 100 99 100 100 99 95 96 96 96 98 97 97 95 97 97 98 99 100 100 98 100 100 100 99 100 99 100 98 100 100 100 100 99 100 100 100
95 95 96 99 96 96 96 94 98 97 96 98 98 97 97 97 96 96 96 96 96 98 97 98 99 100 100 100 100 100 100 99 99 98 100 100 98 96 99 100 100 99 99
95 96 96 99 96 96 97 96 96 92 98 98 99 98 96 90 89 95 95 97 96 98 98 98 97 98 99 100 100 100 100 100 98 100 100 100 100 100 100 100 100 100 100
95 97 97 98 98 96 97 97 97 98 97 94 95 98 100 98 98 98 97 97 98 97 97 96 99 98 98 99 99 100 100 100 100 100 100 100 99 99 100 100 99 100 100
95 96 96 96 96 96 96 96 96 96 97 97 91 94 96 98 98 98 98 97 98 98 98 97 97 97 98 98 98 99 100 100 100 100 100 99 99 98 99 99 100 100 100
93 96 98 96 95 95 95 96 96 96 96 96 94 98 97 89 91 96 97 97 97 97 97 97 98 97 98 99 98 99 100 99 99 98 100 100 100 100 99 98 99 100 100
92 92 100 98 96 96 96 97 97 97 96 96 97 98 97 96 98 96 96 97 97 98 98 97 97 96 96 97 95 97 96 99 99 93 90 96 100 99 99 100 100 100 100
90 90 94 100 100 100 100 96 96 97 97 96 95 95 95 93 95 97 99 97 96 97 99 98 98 97 98 98 96 97 98 97 98 97 94 96 98 98 97 97 99 99 99
92 88 93 94 100 100 100 100 100 99 94 94 93 93 94 94 94 95 95 97 98 99 98 98 98 98 98 96 97 97 99 96 93 96 96 96 96 96 96 97 97 98 99
95 94 94 94 96 100 100 100 100 100 98 96 94 90 93 97 98 96 95 95 96 97 97 98 100 100 98 97 97 98 96 95 95 96 98 97 97 98 98 99 97 95 95
95 96 94 98 97 97 94 98 100 100 100 95 91 90 92 84 90 96 97 96 95 96 96 95 96 98 98 97 97 97 98 98 97 97 97 97 97 96 96 96 98 99 98
95 96 94 96 97 97 96 96 96 98 100 99 99 97 90 90 88 79 82 95 96 95 95 95 97 96 95 94 97 97 97 98 98 98 97 97 98 98 97 96 96 96 97
Wind_Speed
32 35 35 35 31 28 27 26 26 27 26 26 27 25 27 27 27 29 33 34 32 34 36 38 43 44 40 40 41 40 41 41 30 23 27 27 24 22 31 37 36 34 32
31 32 35 37 33 29 27 26 26 26 26 26 27 25 24 27 27 29 30 39 34 35 35 34 43 45 45 40 40 41 42 42 37 31 28 31 31 27 27 30 35 36 37
31 32 35 35 35 32 30 27 26 26 26 26 25 25 23 26 28 29 32 34 44 34 39 33 41 46 45 45 45 45 42 42 40 36 33 32 31 30 29 29 32 33 35
32 33 34 34 33 33 32 29 28 26 26 26 25 25 24 25 27 27 29 32 35 42 36 43 29 50 51 49 47 48 44 43 42 41 35 40 37 36 33 33 33 33 32
34 34 33 32 32 31 31 30 28 27 27 26 25 25 25 25 27 25 25 29 34 42 47 43 51 34 48 53 52 49 46 42 43 41 39 41 41 38 40 39 39 36 35
36 36 33 31 30 30 30 30 30 29 27 25 25 24 25 24 25 24 24 26 29 35 41 46 48 50 39 46 49 53 50 47 42 42 39 43 44 40 36 37 39 40 38
36 34 32 30 30 30 30 30 30 28 27 26 24 24 25 25 25 23 23 25 26 33 40 46 52 46 37 45 47 50 51 53 47 48 47 48 45 43 38 38 40 41 40
35 34 32 30 30 31 30 29 28 27 27 24 23 24 25 26 24 20 22 24 26 31 41 44 53 58 37 43 48 51 52 52 48 49 44 46 44 38 37 37 38 38 36
35 33 33 32 32 30 29 28 28 27 24 24 24 25 25 26 19 17 19 21 26 29 34 45 50 52 50 42 47 55 51 53 51 48 41 41 34 34 35 35 35 40 36
36 35 34 32 31 30 29 28 26 24 23 23 24 24 24 21 17 15 15 21 23 23 31 38 41 49 48 49 51 53 49 50 47 46 40 38 36 34 32 32 35 35 33
37 36 32 29 27 27 25 23 23 22 21 23 23 21 19 15 14 14 13 18 17 16 19 28 31 45 51 51 51 52 54 51 49 47 43 39 37 35 36 34 34 31 32
39 34 30 27 24 22 21 20 20 21 21 21 20 18 17 14 13 13 15 15 14 12 11 17 30 39 45 53 50 55 54 48 50 48 46 44 41 44 38 35 32 29 26
35 30 26 24 21 19 19 19 18 17 18 17 17 19 21 16 15 17 16 16 14 16 9 12 29 35 41 45 57 56 55 52 54 48 56 49 47 41 36 34 31 28 25
32 27 27 27 22 19 18 15 16 17 16 15 17 19 18 17 19 19 18 19 13 16 15 3 15 29 35 45 53 61 63 57 53 55 54 52 45 40 33 31 30 28 27
30 30 31 25 20 20 17 15 15 14 12 16 15 16 23 20 16 13 17 18 14 14 14 12 8 13 25 39 54 50 50 58 52 58 57 51 39 38 34 32 31 28 29
31 35 29 22 22 22 21 20 16 13 12 12 14 14 16 14 18 20 18 14 12 9 14 17 16 9 14 24 34 42 47 52 53 52 50 45 38 32 32 32 29 28 28
30 34 28 24 23 21 19 19 20 18 15 13 14 16 16 17 16 16 13 11 9 11 12 19 19 16 11 10 14 29 40 38 33 28 33 34 31 29 29 27 26 27 26
29 34 28 26 24 23 21 19 18 18 19 22 20 16 14 12 12 11 10 10 12 14 16 16 19 16 15 15 14 19 22 23 28 26 24 26 26 24 24 23 23 23 24
30 32 29 29 28 25 25 24 23 23 23 26 27 23 20 18 16 14 12 16 17 17 17 16 17 17 17 15 16 17 20 22 21 20 19 20 20 19 19 18 20 21 21
29 28 27 29 29 29 28 29 28 28 27 28 30 30 25 23 25 25 24 22 20 20 18 18 16 15 14 16 16 13 15 17 17 15 14 14 14 15 16 16 17 18 19
28 28 26 27 28 27 27 26 26 27 28 28 27 26 25 26 27 27 25 23 21 19 17 16 15 13 12 12 12 12 12 11 11 10 9 8 10 10 12 14 16 16 16
28 28 27 26 25 26 25 26 25 25 24 25 26 26 26 27 27 27 26 25 23 21 19 17 15 13 11 10 9 7 6 7 7 6 5 5 7 8 9 10 11 11 13
26 26 27 28 26 24 25 25 26 25 24 24 23 23 24 24 24 24 24 24 24 23 21 19 18 17 15 13 9 5 3 4 3 2 5 7 8 8 9 9 10 10 11
24 25 27 27 26 26 25 25 25 25 25 25 24 22 21 20 19 18 18 19 19 19 20 20 20 19 17 16 13 10 8 6 5 5 6 7 8 9 9 10 10 10 11
22 23 24 26 27 27 26 25 25 24 25 26 25 24 22 19 17 16 15 15 15 15 16 17 18 18 17 17 15 14 10 8 7 7 8 8 9 9 10 11 12 13 13
22 22 20 22 24 25 26 25 24 23 23 23 25 24 23 20 18 16 14 13 13 14 14 14 13 13 13 13 14 13 12 10 9 8 8 8 8 10 11 12 12 12 13
Wind_Direction
318 319 318 317 315 310 306 302 300 298 298 298 297 294 293 292 283 276 258 262 253 234 226 230 228 225 223 220 221 228 221 222 222 231 229 229 224 228 234 235 236 235 236
316 314 313 313 314 310 306 304 302 299 297 297 295 291 292 291 285 278 266 249 262 248 228 224 230 228 226 224 226 230 225 226 219 219 218 220 226 236 234 234 237 237 236
313 311 310 311 312 311 308 304 302 300 298 296 294 291 288 290 286 278 274 257 251 258 237 227 229 231 228 228 224 232 233 231 224 216 222 227 226 223 229 239 236 236 235
312 310 308 307 307 306 306 305 304 301 298 296 293 290 286 289 286 281 273 268 255 254 254 234 226 232 230 226 222 224 229 229 222 221 220 230 229 231 236 235 233 227 230
310 308 306 305 304 304 303 305 304 300 295 296 294 292 288 285 286 282 277 266 259 250 255 240 230 235 226 227 225 226 222 223 222 222 218 225 231 231 230 233 233 234 236
311 309 309 306 303 303 302 302 302 300 298 295 295 295 292 286 286 278 272 269 265 256 251 244 233 233 230 227 229 227 227 220 218 217 215 226 235 231 228 229 227 229 231
312 311 309 307 305 302 300 301 301 301 301 296 298 298 296 290 288 277 272 270 271 258 248 245 239 225 232 230 230 230 229 224 225 228 233 236 225 229 227 228 231 234 234
312 311 310 306 302 302 301 301 300 300 299 299 299 300 298 294 291 276 278 273 278 262 250 243 234 232 230 230 231 226 227 233 235 235 240 237 233 235 235 234 235 232 228
315 312 309 307 304 303 300 301 300 301 301 300 304 306 303 300 288 291 286 288 288 265 249 244 232 228 224 231 226 222 224 225 232 232 236 233 239 234 229 227 224 222 219
321 319 318 313 307 302 300 299 300 301 301 304 307 308 309 303 297 303 298 303 298 267 247 248 239 228 225 231 227 219 216 212 224 227 224 227 234 229 228 222 220 219 221
333 330 323 319 311 306 301 301 302 304 307 307 308 312 318 315 311 314 305 310 312 277 249 233 236 228 228 225 220 207 217 219 220 220 223 218 218 216 220 211 217 221 225
337 332 329 325 319 311 305 309 310 309 307 306 312 321 339 333 319 327 325 317 333 329 242 224 236 228 216 219 219 218 218 222 223 217 215 216 214 207 201 208 213 217 221
339 335 336 337 330 326 316 307 305 309 308 310 314 324 332 333 325 334 335 325 334 349 340 225 234 241 222 218 223 216 219 213 211 213 211 210 207 203 204 204 208 219 226
342 342 345 339 335 330 323 316 310 311 311 316 323 321 327 336 332 349 344 339 332 344 359 308 201 223 227 221 220 216 210 208 211 212 211 206 199 196 203 209 213 218 224
353 0 354 350 345 350 353 342 329 336 318 317 316 322 327 338 358 347 344 340 343 356 357 23 121 158 205 203 209 213 209 197 204 200 205 193 197 196 202 212 217 219 222
2 5 354 356 359 354 356 359 3 350 346 336 330 331 332 337 337 333 332 347 349 13 24 36 57 112 136 159 175 179 181 189 196 201 191 188 190 203 205 206 212 217 222
9 6 1 7 5 3 2 1 359 9 4 0 346 340 338 334 336 340 349 0 24 43 46 45 51 57 91 130 141 146 158 164 164 172 175 175 184 193 200 204 211 218 220
16 15 9 15 14 16 17 17 19 16 13 20 26 15 14 7 360 12 24 57 56 59 57 48 54 55 69 93 110 128 145 149 158 172 174 174 181 191 197 203 212 220 221
18 17 15 24 25 29 29 30 31 30 27 29 32 36 42 49 56 64 64 57 58 60 64 62 55 54 53 73 90 104 123 131 140 152 162 167 175 183 194 202 211 214 218
18 22 20 25 26 31 34 34 35 36 36 35 34 24 34 46 51 53 60 61 61 60 56 56 56 53 51 56 67 79 99 112 123 136 148 161 166 180 188 201 209 216 220
18 23 22 26 26 23 28 31 32 35 37 38 38 36 40 45 46 46 47 46 45 45 46 46 46 48 42 42 52 64 83 104 113 121 130 147 167 171 184 195 202 204 213
19 24 23 26 21 22 22 27 29 30 32 34 36 40 43 45 45 45 46 46 44 43 43 44 43 46 47 56 64 66 85 100 108 126 141 167 179 180 191 198 204 204 204
17 19 24 27 23 21 22 26 27 27 28 29 31 34 37 42 41 41 41 42 45 45 47 49 51 50 49 51 60 85 103 103 116 187 210 203 195 196 201 201 195 187 186
19 22 26 25 25 27 22 23 25 23 26 28 28 28 30 33 37 38 38 38 40 43 44 46 49 53 52 54 56 64 73 83 101 129 148 155 162 172 174 171 167 160 164
16 21 26 25 25 25 23 25 26 23 23 24 24 24 25 25 27 30 34 35 36 37 40 43 43 44 50 54 55 61 68 81 93 109 119 131 142 146 148 149 155 160 160
20 20 19 22 24 25 24 22 22 21 19 18 15 14 15 16 19 20 23 26 32 39 38 40 43 45 46 55 58 61 68 76 89 102 117 130 140 145 148 151 153 156 156